Flag for China Weather past 2 weeks in Kashgar, China

Now
54 °F

Cool.


Feels Like: 53 °F
Forecast: 48 / 69 °F
Wind: 3 mph from North

Location: Kashi Airport


UV Index: 7 (High)

Visibility: 4 mi


Pressure: 30.15 "Hg

Humidity: 28%

Dew point: 21 °F

Location of KashgarLocation

Historic Weather in Kashgar

°F

Kashgar temperature yesterday

Maximum temperature yesterday: 66 °F (at 5:00 PM)
Minimum temperature yesterday: 54 °F (at 8:00 AM)
Average temperature yesterday: 59 °F

Past Weeks' High & Low Weather Summary

 TemperatureHumidityPressure
High75 °F (Apr 16, 5:00 PM)50% (Apr 9, 9:00 AM)30.15 "Hg (Apr 9, 9:00 AM)
Low45 °F (Apr 15, 8:00 AM)3% (Apr 14, 5:00 PM)29.77 "Hg (Apr 16, 6:00 PM)
Average61 °F15%29.97 "Hg
* Reported Apr 5 1:00 AM — Apr 20 1:00 AM, Kashgar, Weather by CustomWeather, © 2014

Note: Actual official high and low records may vary slightly from our data, if they occured in-between our weather recording intervals... More about our weather records

Advertising

Historic Weather Conditions — Data for Previous 24 hours

 ConditionsComfort  
Time TempWeatherWind HumidityBarometerVisibility
1:00 AM
Apr 20
55 °FFog.3 mph26%30.15 "Hg3 mi
12:00 AM57 °FFog.3 mph25%30.15 "Hg3 mi
11:00 PM
Apr 19
59 °FDuststorm.6 mph18%30.15 "Hg3 mi
10:00 PM61 °FClear.6 mph15%30.12 "Hg4 mi
9:00 PM63 °FClear.3 mph14%30.09 "Hg4 mi
8:00 PM63 °FClear.6 mph13%30.09 "Hg4 mi
7:00 PM64 °FClear.8 mph12%30.09 "Hg4 mi
6:00 PM64 °FClear.6 mph12%30.09 "Hg4 mi
5:00 PM66 °FClear.8 mph12%30.09 "Hg4 mi
4:00 PM64 °FClear.10 mph12%30.09 "Hg4 mi
3:00 PM63 °FClear.8 mph16%30.12 "Hg4 mi
2:00 PM61 °FClear.6 mph16%30.15 "Hg4 mi
1:00 PM59 °FClear.3 mph17%30.15 "Hg4 mi
12:00 PM57 °FClear.6 mph17%30.15 "Hg4 mi
11:00 AM55 °FClear.1 mph19%30.15 "Hg4 mi
10:00 AM55 °FClear.8 mph19%30.12 "Hg4 mi
9:00 AM54 °FClear.3 mph22%30.12 "Hg4 mi
8:00 AM54 °FClear.8 mph22%30.12 "Hg4 mi
7:00 AM55 °FDuststorm.3 mph23%30.12 "Hg3 mi
6:00 AM55 °FDuststorm.3 mph21%30.12 "Hg2 mi
5:00 AM55 °FDuststorm.3 mph26%30.12 "Hg2 mi
4:00 AM57 °FRefreshingly cool.1 mph21%30.12 "Hg6 mi
3:00 AM57 °FRefreshingly cool.6 mph21%30.12 "Hg5 mi
2:00 AM59 °FRefreshingly cool.8 mph18%30.12 "Hg5 mi
Weather by CustomWeather, © 2014

See weather overview